{"data":{"norad_id":41029,"intl_designator":"2015-065B","name":"BADR-7 (ARABSAT-6B)","alt_names":[],"object_type":"PAYLOAD","status":"ACTIVE","operator":null,"country":"AB","launch_date":"2015-11-10","launch_site_code":"FRGUI","launch_vehicle":null,"mission":null,"orbit_class":"UNKNOWN","rcs_meters":78.9705,"size_class":null,"mass_kg":null,"dimensions":null,"purposes":["comms"],"wikipedia_slug":null,"has_3d_model":false,"image_url":null,"decayed_at":null,"tle_current":{"epoch":"2026-05-25T03:52:01.550784Z","epoch_age_seconds":61942,"freshness":"FRESH","line1":"1 41029U 15065B   26145.16112906  .00000142  00000+0  00000+0 0  9992","line2":"2 41029   0.0322 239.1464 0002711 324.7428 122.8436  1.00271172 38531","mean_motion":1.00271172,"eccentricity":0.0002711,"inclination_deg":0.0322,"raan_deg":239.1464,"arg_perigee_deg":324.7428,"mean_anomaly_deg":122.8436,"bstar":0,"rev_number":3853,"period_min":1436.105683496,"perigee_km":35775.335902796,"apogee_km":35798.197713641,"semimajor_km":42164.903808219,"source":"CELESTRAK","updated_at":"2026-05-25T13:38:13.996348Z"}}}